Location: Briis
(48.6240°N, 2.1211°E)
Time: 11:12:07
(UTC+00:00)

IDEFIX/ARIANE 42P - Pass Details

Date: 25 September 2020
Orbit: 786 x 802 km, 98.4° (Epoch: 25 October)

Event Time Altitude Azimuth Distance (km) Brightness Sun altitude
Rises 02:14:09 0° 21° (NNE) 3,326 6.7 -32.4°
Reaches altitude 10° 02:16:45 10° 31° (NNE) 2,391 5.9 -32.1°
Maximum altitude 02:21:28 33° 95° (E) 1,340 4.0 -31.5°
Enters shadow 02:22:23 31° 115° (ESE) 1,393 3.9 -31.4°
